Time,TemperatureF,DewpointF,PressureIn,WindDirection,WindDirectionDegrees,WindSpeedMPH,WindSpeedGustMPH,Humidity,HourlyPrecipIn,Conditions,Clouds,dailyrainin,SoftwareType,DateUTC
2013-06-21 00:01:00,64.2,50.0,30.25,West,270,2.0,2.0,62,0.00,,,0.00,Rainwise IP-100,2013-06-21 04:01:00,
2013-06-21 00:06:00,64.2,51.0,30.24,WSW,247,8.0,8.0,63,0.00,,,0.00,Rainwise IP-100,2013-06-21 04:06:00,
2013-06-21 00:11:00,64.2,50.0,30.27,SW,225,8.0,8.0,62,0.00,,,0.00,Rainwise IP-100,2013-06-21 04:11:00,
2013-06-21 00:16:00,64.3,50.0,30.23,WSW,247,4.0,4.0,62,0.00,,,0.00,Rainwise IP-100,2013-06-21 04:16:00,
2013-06-21 00:21:00,64.3,51.0,30.26,WSW,247,5.0,5.0,63,0.00,,,0.00,Rainwise IP-100,2013-06-21 04:21:00,
2013-06-21 00:26:00,64.2,51.0,30.24,SW,225,5.0,5.0,64,0.00,,,0.00,Rainwise IP-100,2013-06-21 04:26:00,
2013-06-21 00:31:00,64.1,52.0,30.25,SW,225,5.0,9.0,65,0.00,,,0.00,Rainwise IP-100,2013-06-21 04:31:00,
2013-06-21 00:36:00,64.2,52.0,30.24,WSW,247,6.0,6.0,65,0.00,,,0.00,Rainwise IP-100,2013-06-21 04:36:00,
2013-06-21 00:41:00,64.0,53.0,30.25,SW,225,0.0,4.0,66,0.00,,,0.00,Rainwise IP-100,2013-06-21 04:41:00,
2013-06-21 00:46:00,63.8,52.0,30.25,WSW,247,0.0,4.0,66,0.00,,,0.00,Rainwise IP-100,2013-06-21 04:46:00,
2013-06-21 00:51:00,63.8,52.0,30.26,WSW,247,8.0,8.0,66,0.00,,,0.00,Rainwise IP-100,2013-06-21 04:51:00,
2013-06-21 00:55:00,63.8,51.0,30.24,WSW,247,9.0,9.0,65,0.00,,,0.00,Rainwise IP-100,2013-06-21 04:55:00,
2013-06-21 01:00:00,63.8,51.0,30.26,WSW,247,9.0,9.0,64,0.00,,,0.00,Rainwise IP-100,2013-06-21 05:00:00,
2013-06-21 01:05:00,63.9,51.0,30.26,WSW,247,0.0,6.0,64,0.00,,,0.00,Rainwise IP-100,2013-06-21 05:05:00,
2013-06-21 01:10:00,63.9,52.0,30.27,West,270,5.0,6.0,65,0.00,,,0.00,Rainwise IP-100,2013-06-21 05:10:00,
2013-06-21 01:15:00,63.7,51.0,30.25,WSW,247,6.0,6.0,65,0.00,,,0.00,Rainwise IP-100,2013-06-21 05:15:00,
2013-06-21 01:20:00,63.5,52.0,30.25,SSW,202,5.0,6.0,66,0.00,,,0.00,Rainwise IP-100,2013-06-21 05:20:00,
2013-06-21 01:25:00,63.3,52.0,30.25,WSW,247,7.0,7.0,67,0.00,,,0.00,Rainwise IP-100,2013-06-21 05:25:00,
2013-06-21 01:30:00,63.0,53.0,30.25,WSW,247,8.0,8.0,69,0.00,,,0.00,Rainwise IP-100,2013-06-21 05:30:00,
2013-06-21 01:35:00,62.8,53.0,30.25,SW,225,6.0,6.0,70,0.00,,,0.00,Rainwise IP-100,2013-06-21 05:35:00,
2013-06-21 01:40:00,62.6,53.0,30.22,SW,225,0.0,4.0,70,0.00,,,0.00,Rainwise IP-100,2013-06-21 05:40:00,
2013-06-21 01:45:00,62.5,53.0,30.24,SW,225,9.0,9.0,71,0.00,,,0.00,Rainwise IP-100,2013-06-21 05:45:00,
2013-06-21 01:50:00,62.4,53.0,30.25,WSW,247,6.0,6.0,72,0.00,,,0.00,Rainwise IP-100,2013-06-21 05:50:00,
2013-06-21 01:55:00,62.3,53.0,30.26,SW,225,5.0,5.0,72,0.00,,,0.00,Rainwise IP-100,2013-06-21 05:55:00,
2013-06-21 02:00:00,62.4,53.0,30.24,WSW,247,8.0,8.0,72,0.00,,,0.00,Rainwise IP-100,2013-06-21 06:00:00,
2013-06-21 02:05:00,62.4,54.0,30.26,WSW,247,9.0,9.0,73,0.00,,,0.00,Rainwise IP-100,2013-06-21 06:05:00,
2013-06-21 02:10:00,62.5,54.0,30.23,SW,225,6.0,6.0,73,0.00,,,0.00,Rainwise IP-100,2013-06-21 06:10:00,
2013-06-21 02:15:00,62.5,54.0,30.21,WSW,247,4.0,4.0,73,0.00,,,0.00,Rainwise IP-100,2013-06-21 06:15:00,
2013-06-21 02:20:00,62.5,54.0,30.22,WSW,247,2.0,2.0,73,0.00,,,0.00,Rainwise IP-100,2013-06-21 06:20:00,
2013-06-21 02:25:00,62.6,54.0,30.24,West,270,7.0,0.0,73,0.00,,,0.00,Rainwise IP-100,2013-06-21 06:25:00,
2013-06-21 02:30:00,62.6,54.0,30.23,NW,315,3.0,3.0,73,0.00,,,0.00,Rainwise IP-100,2013-06-21 06:30:00,
2013-06-21 02:35:00,62.7,54.0,30.24,West,270,4.0,4.0,73,0.00,,,0.00,Rainwise IP-100,2013-06-21 06:35:00,
2013-06-21 02:40:00,62.7,54.0,30.21,West,270,5.0,5.0,73,0.00,,,0.00,Rainwise IP-100,2013-06-21 06:40:00,
2013-06-21 02:45:00,62.7,54.0,30.23,West,270,2.0,2.0,73,0.00,,,0.00,Rainwise IP-100,2013-06-21 06:45:00,
2013-06-21 02:50:00,62.8,54.0,30.23,SW,225,2.0,2.0,74,0.00,,,0.00,Rainwise IP-100,2013-06-21 06:50:00,
2013-06-21 02:55:00,62.9,54.0,30.23,SW,225,2.0,2.0,74,0.00,,,0.00,Rainwise IP-100,2013-06-21 06:55:00,
2013-06-21 03:00:00,62.8,54.0,30.24,WSW,247,8.0,8.0,74,0.00,,,0.00,Rainwise IP-100,2013-06-21 07:00:00,
2013-06-21 03:05:00,62.7,54.0,30.23,WSW,247,5.0,5.0,74,0.00,,,0.00,Rainwise IP-100,2013-06-21 07:05:00,
2013-06-21 03:10:00,62.6,54.0,30.24,WSW,247,9.0,9.0,74,0.00,,,0.00,Rainwise IP-100,2013-06-21 07:10:00,
2013-06-21 03:15:00,62.5,54.0,30.22,WSW,247,4.0,4.0,75,0.00,,,0.00,Rainwise IP-100,2013-06-21 07:15:00,
2013-06-21 03:20:00,62.3,54.0,30.19,WSW,247,6.0,6.0,75,0.00,,,0.00,Rainwise IP-100,2013-06-21 07:20:00,
2013-06-21 03:25:00,62.2,54.0,30.22,WSW,247,7.0,0.0,76,0.00,,,0.00,Rainwise IP-100,2013-06-21 07:25:00,
2013-06-21 03:30:00,62.1,54.0,30.21,SW,225,4.0,9.0,76,0.00,,,0.00,Rainwise IP-100,2013-06-21 07:30:00,
2013-06-21 03:35:00,62.0,54.0,30.22,West,270,8.0,9.0,76,0.00,,,0.00,Rainwise IP-100,2013-06-21 07:35:00,
2013-06-21 03:40:00,61.9,54.0,30.22,SW,225,4.0,4.0,77,0.00,,,0.00,Rainwise IP-100,2013-06-21 07:40:00,
2013-06-21 03:45:00,61.9,54.0,30.22,SW,225,2.0,0.0,77,0.00,,,0.00,Rainwise IP-100,2013-06-21 07:45:00,
2013-06-21 03:50:00,61.9,54.0,30.22,West,270,4.0,7.0,77,0.00,,,0.00,Rainwise IP-100,2013-06-21 07:50:00,
2013-06-21 03:55:00,61.8,54.0,30.24,SW,225,2.0,7.0,78,0.00,,,0.00,Rainwise IP-100,2013-06-21 07:55:00,
2013-06-21 04:00:00,61.6,54.0,30.24,South,180,2.0,7.0,78,0.00,,,0.00,Rainwise IP-100,2013-06-21 08:00:00,
2013-06-21 04:05:00,61.3,54.0,30.22,SSW,202,2.0,6.0,79,0.00,,,0.00,Rainwise IP-100,2013-06-21 08:05:00,
2013-06-21 04:10:00,61.0,54.0,30.23,SSW,202,0.0,7.0,80,0.00,,,0.00,Rainwise IP-100,2013-06-21 08:10:00,
2013-06-21 04:15:00,60.9,54.0,30.24,SW,225,3.0,4.0,80,0.00,,,0.00,Rainwise IP-100,2013-06-21 08:15:00,
2013-06-21 04:20:00,60.9,55.0,30.23,SSW,202,4.0,5.0,81,0.00,,,0.00,Rainwise IP-100,2013-06-21 08:20:00,
2013-06-21 04:25:00,60.9,55.0,30.22,SSE,157,1.0,5.0,82,0.00,,,0.00,Rainwise IP-100,2013-06-21 08:25:00,
2013-06-21 04:30:00,60.6,54.0,30.21,SSE,157,3.0,7.0,82,0.00,,,0.00,Rainwise IP-100,2013-06-21 08:30:00,
2013-06-21 04:35:00,59.8,54.0,30.22,SSE,157,3.0,6.0,82,0.00,,,0.00,Rainwise IP-100,2013-06-21 08:35:00,
2013-06-21 04:40:00,59.0,54.0,30.23,South,180,6.0,6.0,83,0.00,,,0.00,Rainwise IP-100,2013-06-21 08:40:00,
2013-06-21 04:45:00,58.4,53.0,30.23,SSW,202,4.0,6.0,84,0.00,,,0.00,Rainwise IP-100,2013-06-21 08:45:00,
2013-06-21 04:50:00,58.1,54.0,30.20,South,180,4.0,5.0,85,0.00,,,0.00,Rainwise IP-100,2013-06-21 08:50:00,
2013-06-21 04:55:00,57.8,53.0,30.23,SSW,202,4.0,6.0,86,0.00,,,0.00,Rainwise IP-100,2013-06-21 08:55:00,
2013-06-21 05:00:00,57.7,54.0,30.22,SSW,202,3.0,5.0,87,0.00,,,0.00,Rainwise IP-100,2013-06-21 09:00:00,
2013-06-21 05:05:00,57.8,54.0,30.23,SSW,202,3.0,4.0,87,0.00,,,0.00,Rainwise IP-100,2013-06-21 09:05:00,
2013-06-21 05:10:00,57.9,54.0,30.22,SE,135,3.0,3.0,87,0.00,,,0.00,Rainwise IP-100,2013-06-21 09:10:00,
2013-06-21 05:15:00,57.9,54.0,30.24,SSE,157,3.0,4.0,87,0.00,,,0.00,Rainwise IP-100,2013-06-21 09:15:00,
2013-06-21 05:20:00,57.8,54.0,30.23,South,180,0.0,3.0,87,0.00,,,0.00,Rainwise IP-100,2013-06-21 09:20:00,
2013-06-21 05:25:00,57.8,54.0,30.20,South,180,0.0,1.0,87,0.00,,,0.00,Rainwise IP-100,2013-06-21 09:25:00,
2013-06-21 05:30:00,57.7,54.0,30.22,South,180,3.0,3.0,88,0.00,,,0.00,Rainwise IP-100,2013-06-21 09:30:00,
2013-06-21 05:35:00,57.8,54.0,30.24,SSE,157,0.0,2.0,88,0.00,,,0.00,Rainwise IP-100,2013-06-21 09:35:00,
2013-06-21 05:40:00,57.6,54.0,30.22,ENE,67,2.0,3.0,88,0.00,,,0.00,Rainwise IP-100,2013-06-21 09:40:00,
2013-06-21 05:45:00,57.1,53.0,30.23,ENE,67,1.0,2.0,88,0.00,,,0.00,Rainwise IP-100,2013-06-21 09:45:00,
2013-06-21 05:50:00,57.0,53.0,30.23,ENE,67,0.0,1.0,88,0.00,,,0.00,Rainwise IP-100,2013-06-21 09:50:00,
2013-06-21 05:55:00,57.2,54.0,30.22,ENE,67,0.0,1.0,89,0.00,,,0.00,Rainwise IP-100,2013-06-21 09:55:00,
2013-06-21 06:00:00,57.3,54.0,30.20,NE,45,1.0,2.0,89,0.00,,,0.00,Rainwise IP-100,2013-06-21 10:00:00,
2013-06-21 06:05:00,57.1,54.0,30.23,ENE,67,2.0,3.0,89,0.00,,,0.00,Rainwise IP-100,2013-06-21 10:05:00,
2013-06-21 06:10:00,56.7,53.0,30.23,ENE,67,0.0,3.0,89,0.00,,,0.00,Rainwise IP-100,2013-06-21 10:10:00,
2013-06-21 06:15:00,56.6,53.0,30.24,ENE,67,0.0,2.0,89,0.00,,,0.00,Rainwise IP-100,2013-06-21 10:15:00,
2013-06-21 06:20:00,56.6,53.0,30.23,ENE,67,0.0,1.0,90,0.00,,,0.00,Rainwise IP-100,2013-06-21 10:20:00,
2013-06-21 06:25:00,56.7,53.0,30.24,ENE,67,0.0,1.0,90,0.00,,,0.00,Rainwise IP-100,2013-06-21 10:25:00,
2013-06-21 06:30:00,56.8,53.0,30.24,ENE,67,0.0,0.0,90,0.00,,,0.00,Rainwise IP-100,2013-06-21 10:30:00,
2013-06-21 06:35:00,56.9,54.0,30.23,NNW,337,0.0,2.0,90,0.00,,,0.00,Rainwise IP-100,2013-06-21 10:35:00,
2013-06-21 06:40:00,57.1,54.0,30.24,NNW,337,1.0,1.0,91,0.00,,,0.00,Rainwise IP-100,2013-06-21 10:40:00,
2013-06-21 06:45:00,57.2,54.0,30.23,NNW,337,3.0,3.0,91,0.00,,,0.00,Rainwise IP-100,2013-06-21 10:45:00,
2013-06-21 06:50:00,57.2,54.0,30.26,NNW,337,3.0,3.0,91,0.00,,,0.00,Rainwise IP-100,2013-06-21 10:50:00,
2013-06-21 06:55:00,57.2,54.0,30.26,NNW,337,3.0,3.0,90,0.00,,,0.00,Rainwise IP-100,2013-06-21 10:55:00,
2013-06-21 07:00:00,57.0,54.0,30.25,NNW,337,2.0,3.0,90,0.00,,,0.00,Rainwise IP-100,2013-06-21 11:00:00,
2013-06-21 07:05:00,56.9,54.0,30.25,NNW,337,3.0,3.0,91,0.00,,,0.00,Rainwise IP-100,2013-06-21 11:05:00,
2013-06-21 07:10:00,57.0,54.0,30.25,WNW,292,1.0,2.0,91,0.00,,,0.00,Rainwise IP-100,2013-06-21 11:10:00,
2013-06-21 07:15:00,57.1,54.0,30.23,NNW,337,0.0,3.0,91,0.00,,,0.00,Rainwise IP-100,2013-06-21 11:15:00,
2013-06-21 07:20:00,57.1,54.0,30.24,NNW,337,0.0,2.0,91,0.00,,,0.00,Rainwise IP-100,2013-06-21 11:20:00,
2013-06-21 07:25:00,57.3,54.0,30.26,NNW,337,1.0,1.0,91,0.00,,,0.00,Rainwise IP-100,2013-06-21 11:25:00,
2013-06-21 07:30:00,57.5,55.0,30.26,NNW,337,2.0,4.0,91,0.00,,,0.00,Rainwise IP-100,2013-06-21 11:30:00,
2013-06-21 07:35:00,57.6,54.0,30.26,NNE,22,2.0,3.0,90,0.00,,,0.00,Rainwise IP-100,2013-06-21 11:35:00,
2013-06-21 07:40:00,57.7,54.0,30.24,NNW,337,2.0,2.0,90,0.00,,,0.00,Rainwise IP-100,2013-06-21 11:40:00,
2013-06-21 07:45:00,57.8,54.0,30.26,ENE,67,3.0,3.0,90,0.00,,,0.00,Rainwise IP-100,2013-06-21 11:45:00,
2013-06-21 07:50:00,58.0,55.0,30.24,NNE,22,2.0,3.0,89,0.00,,,0.00,Rainwise IP-100,2013-06-21 11:50:00,
2013-06-21 07:55:00,57.9,55.0,30.25,NNW,337,2.0,3.0,89,0.00,,,0.00,Rainwise IP-100,2013-06-21 11:55:00,
2013-06-21 08:00:00,57.7,54.0,30.24,NNW,337,3.0,3.0,89,0.00,,,0.00,Rainwise IP-100,2013-06-21 12:00:00,
2013-06-21 08:05:00,57.5,54.0,30.26,NNW,337,2.0,3.0,89,0.00,,,0.00,Rainwise IP-100,2013-06-21 12:05:00,
2013-06-21 08:10:00,57.4,54.0,30.24,NNW,337,2.0,3.0,90,0.00,,,0.00,Rainwise IP-100,2013-06-21 12:10:00,
2013-06-21 08:15:00,57.5,54.0,30.27,NNW,337,3.0,3.0,90,0.00,,,0.00,Rainwise IP-100,2013-06-21 12:15:00,
2013-06-21 08:20:00,57.5,54.0,30.24,NNW,337,0.0,3.0,90,0.00,,,0.00,Rainwise IP-100,2013-06-21 12:20:00,
2013-06-21 08:25:00,57.6,54.0,30.25,NNW,337,0.0,2.0,90,0.00,,,0.00,Rainwise IP-100,2013-06-21 12:25:00,
2013-06-21 08:30:00,58.0,55.0,30.24,NNW,337,4.0,4.0,90,0.00,,,0.00,Rainwise IP-100,2013-06-21 12:30:00,
2013-06-21 08:35:00,58.6,56.0,30.23,NW,315,2.0,3.0,89,0.00,,,0.00,Rainwise IP-100,2013-06-21 12:35:00,
2013-06-21 08:36:00,58.7,56.0,30.27,NW,315,3.0,3.0,89,0.00,,,0.00,Rainwise IP-100,2013-06-21 12:36:00,
2013-06-21 08:41:00,59.0,55.0,30.26,NNW,337,3.0,3.0,88,0.00,,,0.00,Rainwise IP-100,2013-06-21 12:41:00,
2013-06-21 08:46:00,58.8,55.0,30.27,NNW,337,3.0,3.0,88,0.00,,,0.00,Rainwise IP-100,2013-06-21 12:46:00,
2013-06-21 08:51:00,58.8,55.0,30.23,NNE,22,0.0,3.0,88,0.00,,,0.00,Rainwise IP-100,2013-06-21 12:51:00,
2013-06-21 08:56:00,59.1,55.0,30.26,North,0,2.0,3.0,87,0.00,,,0.00,Rainwise IP-100,2013-06-21 12:56:00,
2013-06-21 09:01:00,59.7,55.0,30.26,NNW,337,2.0,3.0,87,0.00,,,0.00,Rainwise IP-100,2013-06-21 13:01:00,
2013-06-21 09:06:00,60.1,56.0,30.23,NNW,337,4.0,4.0,86,0.00,,,0.00,Rainwise IP-100,2013-06-21 13:06:00,
2013-06-21 09:11:00,60.0,55.0,30.25,NNW,337,3.0,4.0,85,0.00,,,0.00,Rainwise IP-100,2013-06-21 13:11:00,
2013-06-21 09:16:00,59.6,54.0,30.26,NNW,337,4.0,4.0,85,0.00,,,0.00,Rainwise IP-100,2013-06-21 13:16:00,
2013-06-21 09:21:00,59.4,55.0,30.24,NNW,337,2.0,4.0,86,0.00,,,0.00,Rainwise IP-100,2013-06-21 13:21:00,
2013-06-21 09:26:00,59.6,55.0,30.25,NNW,337,3.0,4.0,86,0.00,,,0.00,Rainwise IP-100,2013-06-21 13:26:00,
2013-06-21 09:31:00,59.8,55.0,30.23,NNW,337,2.0,4.0,87,0.00,,,0.00,Rainwise IP-100,2013-06-21 13:31:00,
2013-06-21 09:36:00,59.8,55.0,30.24,North,0,1.0,3.0,87,0.00,,,0.00,Rainwise IP-100,2013-06-21 13:36:00,
2013-06-21 09:37:00,59.8,55.0,30.24,NNW,337,2.0,2.0,87,0.00,,,0.00,Rainwise IP-100,2013-06-21 13:37:00,
2013-06-21 09:42:00,60.0,56.0,30.24,NW,315,3.0,3.0,86,0.00,,,0.00,Rainwise IP-100,2013-06-21 13:42:00,
2013-06-21 09:47:00,59.9,56.0,30.25,North,0,2.0,4.0,86,0.00,,,0.00,Rainwise IP-100,2013-06-21 13:47:00,
2013-06-21 09:52:00,59.9,56.0,30.26,NNW,337,3.0,3.0,86,0.00,,,0.00,Rainwise IP-100,2013-06-21 13:52:00,
2013-06-21 09:57:00,60.0,56.0,30.25,NNW,337,0.0,3.0,86,0.00,,,0.00,Rainwise IP-100,2013-06-21 13:57:00,
2013-06-21 10:02:00,60.6,56.0,30.24,NNW,337,0.0,3.0,86,0.00,,,0.00,Rainwise IP-100,2013-06-21 14:02:00,
2013-06-21 10:07:00,61.4,57.0,30.27,NE,45,0.0,3.0,85,0.00,,,0.00,Rainwise IP-100,2013-06-21 14:07:00,
2013-06-21 10:12:00,61.9,56.0,30.24,NNW,337,1.0,3.0,83,0.00,,,0.00,Rainwise IP-100,2013-06-21 14:12:00,
2013-06-21 10:17:00,62.4,57.0,30.24,NNE,22,1.0,3.0,82,0.00,,,0.00,Rainwise IP-100,2013-06-21 14:17:00,
2013-06-21 10:22:00,62.7,56.0,30.24,NNE,22,2.0,3.0,81,0.00,,,0.00,Rainwise IP-100,2013-06-21 14:22:00,
2013-06-21 10:27:00,62.5,56.0,30.25,NE,45,1.0,2.0,81,0.00,,,0.00,Rainwise IP-100,2013-06-21 14:27:00,
2013-06-21 10:32:00,62.9,57.0,30.25,ENE,67,2.0,2.0,81,0.00,,,0.00,Rainwise IP-100,2013-06-21 14:32:00,
2013-06-21 10:37:00,63.7,57.0,30.24,NE,45,3.0,4.0,80,0.00,,,0.00,Rainwise IP-100,2013-06-21 14:37:00,
2013-06-21 10:42:00,63.6,56.0,30.26,NE,45,3.0,4.0,78,0.00,,,0.00,Rainwise IP-100,2013-06-21 14:42:00,
2013-06-21 10:47:00,63.3,56.0,30.26,ENE,67,3.0,3.0,78,0.00,,,0.00,Rainwise IP-100,2013-06-21 14:47:00,
2013-06-21 10:52:00,63.1,56.0,30.25,ENE,67,2.0,3.0,79,0.00,,,0.00,Rainwise IP-100,2013-06-21 14:52:00,
2013-06-21 10:57:00,62.8,56.0,30.27,ENE,67,2.0,3.0,79,0.00,,,0.00,Rainwise IP-100,2013-06-21 14:57:00,
2013-06-21 11:02:00,63.4,57.0,30.27,NE,45,2.0,3.0,80,0.00,,,0.00,Rainwise IP-100,2013-06-21 15:02:00,
2013-06-21 11:07:00,64.2,57.0,30.26,ENE,67,2.0,3.0,79,0.00,,,0.00,Rainwise IP-100,2013-06-21 15:07:00,
2013-06-21 11:12:00,64.7,57.0,30.24,ENE,67,3.0,3.0,78,0.00,,,0.00,Rainwise IP-100,2013-06-21 15:12:00,
2013-06-21 11:17:00,64.9,57.0,30.27,ENE,67,2.0,3.0,77,0.00,,,0.00,Rainwise IP-100,2013-06-21 15:17:00,
2013-06-21 11:22:00,65.2,57.0,30.25,ENE,67,3.0,4.0,76,0.00,,,0.00,Rainwise IP-100,2013-06-21 15:22:00,
2013-06-21 11:27:00,65.3,57.0,30.24,ESE,112,2.0,4.0,76,0.00,,,0.00,Rainwise IP-100,2013-06-21 15:27:00,
2013-06-21 11:32:00,65.1,57.0,30.26,SE,135,3.0,4.0,76,0.00,,,0.00,Rainwise IP-100,2013-06-21 15:32:00,
2013-06-21 11:37:00,64.9,57.0,30.24,SSE,157,5.0,5.0,76,0.00,,,0.00,Rainwise IP-100,2013-06-21 15:37:00,
2013-06-21 11:42:00,64.7,57.0,30.24,SE,135,6.0,6.0,77,0.00,,,0.00,Rainwise IP-100,2013-06-21 15:42:00,
2013-06-21 11:47:00,64.8,57.0,30.25,ESE,112,3.0,6.0,77,0.00,,,0.00,Rainwise IP-100,2013-06-21 15:47:00,
2013-06-21 11:52:00,64.4,57.0,30.22,SE,135,3.0,6.0,77,0.00,,,0.00,Rainwise IP-100,2013-06-21 15:52:00,
2013-06-21 11:57:00,63.8,56.0,30.24,ESE,112,4.0,7.0,77,0.00,,,0.00,Rainwise IP-100,2013-06-21 15:57:00,
2013-06-21 12:02:00,64.2,56.0,30.22,South,180,4.0,6.0,77,0.00,,,0.00,Rainwise IP-100,2013-06-21 16:02:00,
2013-06-21 12:07:00,64.7,56.0,30.25,ESE,112,7.0,7.0,76,0.00,,,0.00,Rainwise IP-100,2013-06-21 16:07:00,
2013-06-21 12:12:00,64.9,57.0,30.25,SE,135,6.0,7.0,75,0.00,,,0.00,Rainwise IP-100,2013-06-21 16:12:00,
2013-06-21 12:17:00,65.8,57.0,30.22,ESE,112,5.0,7.0,74,0.00,,,0.00,Rainwise IP-100,2013-06-21 16:17:00,
2013-06-21 12:22:00,66.0,57.0,30.26,SE,135,8.0,8.0,73,0.00,,,0.00,Rainwise IP-100,2013-06-21 16:22:00,
2013-06-21 12:27:00,65.2,57.0,30.23,SE,135,8.0,9.0,75,0.00,,,0.00,Rainwise IP-100,2013-06-21 16:27:00,
2013-06-21 12:32:00,65.1,57.0,30.23,SE,135,7.0,8.0,75,0.00,,,0.00,Rainwise IP-100,2013-06-21 16:32:00,
2013-06-21 12:37:00,65.9,57.0,30.24,SSE,157,4.0,7.0,73,0.00,,,0.00,Rainwise IP-100,2013-06-21 16:37:00,
2013-06-21 12:42:00,66.7,57.0,30.24,South,180,2.0,7.0,71,0.00,,,0.00,Rainwise IP-100,2013-06-21 16:42:00,
2013-06-21 12:47:00,66.4,57.0,30.24,ESE,112,6.0,8.0,72,0.00,,,0.00,Rainwise IP-100,2013-06-21 16:47:00,
2013-06-21 12:52:00,65.8,56.0,30.24,SE,135,2.0,7.0,73,0.00,,,0.00,Rainwise IP-100,2013-06-21 16:52:00,
2013-06-21 12:57:00,66.6,57.0,30.23,SSE,157,0.0,8.0,71,0.00,,,0.00,Rainwise IP-100,2013-06-21 16:57:00,
2013-06-21 13:02:00,67.6,56.0,30.24,South,180,7.0,0.0,66,0.00,,,0.00,Rainwise IP-100,2013-06-21 17:02:00,
2013-06-21 13:07:00,68.2,54.0,30.22,ESE,112,6.0,9.0,63,0.00,,,0.00,Rainwise IP-100,2013-06-21 17:07:00,
2013-06-21 13:12:00,68.7,55.0,30.24,ESE,112,8.0,0.0,63,0.00,,,0.00,Rainwise IP-100,2013-06-21 17:12:00,
2013-06-21 13:18:00,69.0,56.0,30.20,SE,135,6.0,0.0,63,0.00,,,0.00,Rainwise IP-100,2013-06-21 17:18:00,
2013-06-21 13:23:00,68.9,56.0,30.24,SE,135,8.0,8.0,64,0.00,,,0.00,Rainwise IP-100,2013-06-21 17:23:00,
2013-06-21 13:28:00,68.3,56.0,30.22,SE,135,4.0,4.0,65,0.00,,,0.00,Rainwise IP-100,2013-06-21 17:28:00,
2013-06-21 13:33:00,68.1,56.0,30.20,SE,135,7.0,7.0,65,0.00,,,0.00,Rainwise IP-100,2013-06-21 17:33:00,
2013-06-21 13:38:00,68.9,56.0,30.25,ESE,112,6.0,0.0,63,0.00,,,0.00,Rainwise IP-100,2013-06-21 17:38:00,
2013-06-21 13:43:00,69.4,55.0,30.20,SE,135,0.0,0.0,61,0.00,,,0.00,Rainwise IP-100,2013-06-21 17:43:00,
2013-06-21 13:46:00,69.4,55.0,30.24,SE,135,7.0,7.0,61,0.00,,,0.00,Rainwise IP-100,2013-06-21 17:46:00,
2013-06-21 13:47:00,69.4,55.0,30.23,SSE,157,7.0,7.0,61,0.00,,,0.00,Rainwise IP-100,2013-06-21 17:47:00,
2013-06-21 13:52:00,69.5,54.0,30.21,SSE,157,0.0,5.0,59,0.00,,,0.00,Rainwise IP-100,2013-06-21 17:52:00,
2013-06-21 13:57:00,69.7,53.0,30.19,SSE,157,9.0,9.0,55,0.00,,,0.00,Rainwise IP-100,2013-06-21 17:57:00,
2013-06-21 14:02:00,69.4,52.0,30.21,SSE,157,9.0,9.0,54,0.00,,,0.00,Rainwise IP-100,2013-06-21 18:02:00,
2013-06-21 14:07:00,68.3,54.0,30.21,SSE,157,5.0,5.0,61,0.00,,,0.00,Rainwise IP-100,2013-06-21 18:07:00,
2013-06-21 14:12:00,67.3,56.0,30.20,ESE,112,8.0,0.0,67,0.00,,,0.00,Rainwise IP-100,2013-06-21 18:12:00,
2013-06-21 14:17:00,66.5,56.0,30.23,SSE,157,3.0,0.0,69,0.00,,,0.00,Rainwise IP-100,2013-06-21 18:17:00,
2013-06-21 14:22:00,66.6,56.0,30.21,South,180,0.0,4.0,70,0.00,,,0.00,Rainwise IP-100,2013-06-21 18:22:00,
2013-06-21 14:23:00,66.8,56.0,30.22,SE,135,6.0,6.0,70,0.00,,,0.00,Rainwise IP-100,2013-06-21 18:23:00,
2013-06-21 14:28:00,67.8,56.0,30.20,SE,135,2.0,6.0,68,0.00,,,0.00,Rainwise IP-100,2013-06-21 18:28:00,
2013-06-21 14:33:00,67.8,56.0,30.20,ESE,112,0.0,5.0,67,0.00,,,0.00,Rainwise IP-100,2013-06-21 18:33:00,
2013-06-21 14:38:00,68.9,56.0,30.21,SE,135,4.0,6.0,65,0.00,,,0.00,Rainwise IP-100,2013-06-21 18:38:00,
2013-06-21 14:43:00,70.1,56.0,30.21,South,180,4.0,8.0,62,0.00,,,0.00,Rainwise IP-100,2013-06-21 18:43:00,
2013-06-21 14:45:00,70.3,56.0,30.22,South,180,2.0,8.0,61,0.00,,,0.00,Rainwise IP-100,2013-06-21 18:45:00,
2013-06-21 14:47:00,70.5,56.0,30.19,SSE,157,3.0,8.0,60,0.00,,,0.00,Rainwise IP-100,2013-06-21 18:47:00,
2013-06-21 14:52:00,72.1,56.0,30.20,WNW,292,0.0,8.0,57,0.00,,,0.00,Rainwise IP-100,2013-06-21 18:52:00,
2013-06-21 14:57:00,74.7,55.0,30.20,SSW,202,0.0,6.0,50,0.00,,,0.00,Rainwise IP-100,2013-06-21 18:57:00,
2013-06-21 15:02:00,76.6,53.0,30.20,WSW,247,5.0,0.0,45,0.00,,,0.00,Rainwise IP-100,2013-06-21 19:02:00,
2013-06-21 15:07:00,77.5,53.0,30.21,SW,225,6.0,0.0,43,0.00,,,0.00,Rainwise IP-100,2013-06-21 19:07:00,
2013-06-21 15:12:00,77.2,52.0,30.20,South,180,7.0,7.0,41,0.00,,,0.00,Rainwise IP-100,2013-06-21 19:12:00,
2013-06-21 15:17:00,76.9,52.0,30.19,SSW,202,7.0,7.0,41,0.00,,,0.00,Rainwise IP-100,2013-06-21 19:17:00,
2013-06-21 15:22:00,76.9,52.0,30.19,South,180,4.0,4.0,41,0.00,,,0.00,Rainwise IP-100,2013-06-21 19:22:00,
2013-06-21 15:27:00,77.2,51.0,30.20,SSE,157,5.0,9.0,40,0.00,,,0.00,Rainwise IP-100,2013-06-21 19:27:00,
2013-06-21 15:32:00,77.7,51.0,30.19,West,270,3.0,9.0,40,0.00,,,0.00,Rainwise IP-100,2013-06-21 19:32:00,
2013-06-21 15:37:00,78.0,52.0,30.16,WSW,247,8.0,0.0,40,0.00,,,0.00,Rainwise IP-100,2013-06-21 19:37:00,
2013-06-21 15:42:00,78.1,51.0,30.18,SW,225,4.0,8.0,39,0.00,,,0.00,Rainwise IP-100,2013-06-21 19:42:00,
2013-06-21 15:47:00,77.8,50.0,30.18,WSW,247,7.0,7.0,39,0.00,,,0.00,Rainwise IP-100,2013-06-21 19:47:00,
2013-06-21 15:52:00,77.5,50.0,30.17,SW,225,7.0,7.0,39,0.00,,,0.00,Rainwise IP-100,2013-06-21 19:52:00,
2013-06-21 15:57:00,77.6,50.0,30.21,WNW,292,5.0,0.0,39,0.00,,,0.00,Rainwise IP-100,2013-06-21 19:57:00,
2013-06-21 16:02:00,77.5,50.0,30.20,WSW,247,3.0,3.0,39,0.00,,,0.00,Rainwise IP-100,2013-06-21 20:02:00,
2013-06-21 16:07:00,77.3,50.0,30.19,SW,225,5.0,5.0,39,0.00,,,0.00,Rainwise IP-100,2013-06-21 20:07:00,
2013-06-21 16:12:00,77.4,51.0,30.16,SW,225,5.0,5.0,40,0.00,,,0.00,Rainwise IP-100,2013-06-21 20:12:00,
2013-06-21 16:17:00,77.7,51.0,30.17,South,180,2.0,0.0,40,0.00,,,0.00,Rainwise IP-100,2013-06-21 20:17:00,
2013-06-21 16:22:00,77.8,50.0,30.19,WSW,247,5.0,5.0,39,0.00,,,0.00,Rainwise IP-100,2013-06-21 20:22:00,
2013-06-21 16:27:00,77.6,50.0,30.21,West,270,0.0,0.0,39,0.00,,,0.00,Rainwise IP-100,2013-06-21 20:27:00,
2013-06-21 16:32:00,77.3,50.0,30.20,SSW,202,5.0,5.0,39,0.00,,,0.00,Rainwise IP-100,2013-06-21 20:32:00,
2013-06-21 16:37:00,77.1,50.0,30.20,West,270,5.0,5.0,39,0.00,,,0.00,Rainwise IP-100,2013-06-21 20:37:00,
2013-06-21 16:42:00,76.9,50.0,30.19,SSW,202,4.0,0.0,39,0.00,,,0.00,Rainwise IP-100,2013-06-21 20:42:00,
2013-06-21 16:45:00,76.8,50.0,30.19,SW,225,4.0,0.0,40,0.00,,,0.00,Rainwise IP-100,2013-06-21 20:45:00,
2013-06-21 16:50:00,76.7,50.0,30.18,SSW,202,9.0,0.0,40,0.00,,,0.00,Rainwise IP-100,2013-06-21 20:50:00,
2013-06-21 16:55:00,76.6,50.0,30.20,WSW,247,4.0,4.0,40,0.00,,,0.00,Rainwise IP-100,2013-06-21 20:55:00,
2013-06-21 17:00:00,76.2,50.0,30.19,WSW,247,3.0,3.0,41,0.00,,,0.00,Rainwise IP-100,2013-06-21 21:00:00,
2013-06-21 17:05:00,76.1,51.0,30.19,WSW,247,0.0,2.0,42,0.00,,,0.00,Rainwise IP-100,2013-06-21 21:05:00,
2013-06-21 17:10:00,75.9,51.0,30.19,SSW,202,7.0,7.0,42,0.00,,,0.00,Rainwise IP-100,2013-06-21 21:10:00,
2013-06-21 17:15:00,75.6,50.0,30.20,SSW,202,4.0,4.0,42,0.00,,,0.00,Rainwise IP-100,2013-06-21 21:15:00,
2013-06-21 17:20:00,75.4,50.0,30.19,WSW,247,7.0,7.0,42,0.00,,,0.00,Rainwise IP-100,2013-06-21 21:20:00,
2013-06-21 17:25:00,75.3,50.0,30.19,WSW,247,8.0,8.0,42,0.00,,,0.00,Rainwise IP-100,2013-06-21 21:25:00,
2013-06-21 17:30:00,75.0,50.0,30.17,SW,225,0.0,3.0,42,0.00,,,0.00,Rainwise IP-100,2013-06-21 21:30:00,
2013-06-21 17:35:00,75.0,51.0,30.20,WSW,247,6.0,7.0,43,0.00,,,0.00,Rainwise IP-100,2013-06-21 21:35:00,
2013-06-21 17:40:00,75.0,51.0,30.19,WNW,292,3.0,4.0,43,0.00,,,0.00,Rainwise IP-100,2013-06-21 21:40:00,
2013-06-21 17:45:00,75.0,51.0,30.19,WSW,247,3.0,3.0,43,0.00,,,0.00,Rainwise IP-100,2013-06-21 21:45:00,
2013-06-21 17:50:00,75.1,51.0,30.18,WSW,247,4.0,4.0,43,0.00,,,0.00,Rainwise IP-100,2013-06-21 21:50:00,
2013-06-21 17:55:00,75.1,50.0,30.20,West,270,4.0,4.0,42,0.00,,,0.00,Rainwise IP-100,2013-06-21 21:55:00,
2013-06-21 18:00:00,75.1,50.0,30.17,SSW,202,6.0,6.0,42,0.00,,,0.00,Rainwise IP-100,2013-06-21 22:00:00,
2013-06-21 18:05:00,75.0,50.0,30.17,West,270,6.0,6.0,42,0.00,,,0.00,Rainwise IP-100,2013-06-21 22:05:00,
2013-06-21 18:10:00,75.2,50.0,30.18,West,270,7.0,7.0,41,0.00,,,0.00,Rainwise IP-100,2013-06-21 22:10:00,
2013-06-21 18:15:00,75.0,50.0,30.18,SSW,202,6.0,6.0,41,0.00,,,0.00,Rainwise IP-100,2013-06-21 22:15:00,
2013-06-21 18:20:00,74.4,50.0,30.19,WSW,247,0.0,1.0,42,0.00,,,0.00,Rainwise IP-100,2013-06-21 22:20:00,
2013-06-21 18:25:00,74.1,50.0,30.19,WSW,247,3.0,3.0,42,0.00,,,0.00,Rainwise IP-100,2013-06-21 22:25:00,
2013-06-21 18:30:00,74.0,50.0,30.18,WSW,247,4.0,4.0,42,0.00,,,0.00,Rainwise IP-100,2013-06-21 22:30:00,
2013-06-21 18:35:00,73.9,50.0,30.18,WSW,247,9.0,9.0,42,0.00,,,0.00,Rainwise IP-100,2013-06-21 22:35:00,
2013-06-21 18:40:00,73.6,49.0,30.18,SSW,202,4.0,5.0,42,0.00,,,0.00,Rainwise IP-100,2013-06-21 22:40:00,
2013-06-21 18:45:00,73.4,49.0,30.18,WSW,247,7.0,7.0,42,0.00,,,0.00,Rainwise IP-100,2013-06-21 22:45:00,
2013-06-21 18:50:00,73.3,49.0,30.18,SW,225,0.0,4.0,42,0.00,,,0.00,Rainwise IP-100,2013-06-21 22:50:00,
2013-06-21 18:55:00,73.2,49.0,30.19,West,270,2.0,3.0,42,0.00,,,0.00,Rainwise IP-100,2013-06-21 22:55:00,
2013-06-21 19:00:00,72.9,48.0,30.19,WSW,247,0.0,2.0,42,0.00,,,0.00,Rainwise IP-100,2013-06-21 23:00:00,
2013-06-21 19:05:00,72.6,48.0,30.17,WSW,247,6.0,6.0,42,0.00,,,0.00,Rainwise IP-100,2013-06-21 23:05:00,
2013-06-21 19:10:00,72.5,48.0,30.19,West,270,4.0,4.0,42,0.00,,,0.00,Rainwise IP-100,2013-06-21 23:10:00,
2013-06-21 19:15:00,72.4,48.0,30.19,SW,225,5.0,5.0,43,0.00,,,0.00,Rainwise IP-100,2013-06-21 23:15:00,
2013-06-21 19:20:00,72.4,48.0,30.19,WSW,247,6.0,6.0,43,0.00,,,0.00,Rainwise IP-100,2013-06-21 23:20:00,
2013-06-21 19:25:00,72.3,48.0,30.18,WSW,247,5.0,5.0,43,0.00,,,0.00,Rainwise IP-100,2013-06-21 23:25:00,
2013-06-21 19:30:00,72.2,48.0,30.20,SW,225,7.0,7.0,43,0.00,,,0.00,Rainwise IP-100,2013-06-21 23:30:00,
2013-06-21 19:35:00,72.0,48.0,30.20,SW,225,7.0,7.0,43,0.00,,,0.00,Rainwise IP-100,2013-06-21 23:35:00,
2013-06-21 19:40:00,71.8,48.0,30.18,WSW,247,0.0,4.0,43,0.00,,,0.00,Rainwise IP-100,2013-06-21 23:40:00,
2013-06-21 19:45:00,71.6,48.0,30.20,SW,225,7.0,7.0,43,0.00,,,0.00,Rainwise IP-100,2013-06-21 23:45:00,
2013-06-21 19:50:00,71.6,48.0,30.22,SW,225,7.0,7.0,44,0.00,,,0.00,Rainwise IP-100,2013-06-21 23:50:00,
2013-06-21 19:55:00,71.6,48.0,30.21,West,270,8.0,8.0,44,0.00,,,0.00,Rainwise IP-100,2013-06-21 23:55:00,
2013-06-21 20:00:00,71.6,48.0,30.20,WSW,247,6.0,6.0,44,0.00,,,0.00,Rainwise IP-100,2013-06-22 00:00:00,
2013-06-21 20:05:00,71.5,48.0,30.20,SW,225,8.0,9.0,44,0.00,,,0.00,Rainwise IP-100,2013-06-22 00:05:00,
2013-06-21 20:10:00,71.5,48.0,30.21,WSW,247,2.0,2.0,44,0.00,,,0.00,Rainwise IP-100,2013-06-22 00:10:00,
2013-06-21 20:15:00,71.4,48.0,30.20,SW,225,4.0,9.0,44,0.00,,,0.00,Rainwise IP-100,2013-06-22 00:15:00,
2013-06-21 20:20:00,71.3,48.0,30.21,WSW,247,6.0,9.0,44,0.00,,,0.00,Rainwise IP-100,2013-06-22 00:20:00,
2013-06-21 20:25:00,71.3,48.0,30.21,WNW,292,4.0,9.0,44,0.00,,,0.00,Rainwise IP-100,2013-06-22 00:25:00,
2013-06-21 20:30:00,71.2,48.0,30.20,WSW,247,7.0,0.0,44,0.00,,,0.00,Rainwise IP-100,2013-06-22 00:30:00,
2013-06-21 20:35:00,71.1,47.0,30.20,WSW,247,8.0,0.0,44,0.00,,,0.00,Rainwise IP-100,2013-06-22 00:35:00,
2013-06-21 20:40:00,71.0,47.0,30.20,WSW,247,5.0,5.0,44,0.00,,,0.00,Rainwise IP-100,2013-06-22 00:40:00,
2013-06-21 20:45:00,70.9,47.0,30.21,WSW,247,8.0,8.0,44,0.00,,,0.00,Rainwise IP-100,2013-06-22 00:45:00,
2013-06-21 20:50:00,70.7,47.0,30.23,WSW,247,8.0,0.0,44,0.00,,,0.00,Rainwise IP-100,2013-06-22 00:50:00,
2013-06-21 20:55:00,70.6,48.0,30.20,WSW,247,9.0,9.0,45,0.00,,,0.00,Rainwise IP-100,2013-06-22 00:55:00,
2013-06-21 21:00:00,70.4,49.0,30.19,WSW,247,4.0,4.0,46,0.00,,,0.00,Rainwise IP-100,2013-06-22 01:00:00,
2013-06-21 21:05:00,70.3,48.0,30.20,SW,225,9.0,9.0,46,0.00,,,0.00,Rainwise IP-100,2013-06-22 01:05:00,
2013-06-21 21:10:00,70.3,49.0,30.20,WSW,247,3.0,3.0,47,0.00,,,0.00,Rainwise IP-100,2013-06-22 01:10:00,
2013-06-21 21:15:00,70.5,49.0,30.20,WSW,247,5.0,7.0,47,0.00,,,0.00,Rainwise IP-100,2013-06-22 01:15:00,
2013-06-21 21:20:00,70.5,49.0,30.22,West,270,7.0,7.0,47,0.00,,,0.00,Rainwise IP-100,2013-06-22 01:20:00,
2013-06-21 21:25:00,70.4,49.0,30.22,WSW,247,5.0,5.0,47,0.00,,,0.00,Rainwise IP-100,2013-06-22 01:25:00,
2013-06-21 21:30:00,70.2,50.0,30.24,WSW,247,4.0,4.0,48,0.00,,,0.00,Rainwise IP-100,2013-06-22 01:30:00,
2013-06-21 21:35:00,70.0,50.0,30.23,WSW,247,4.0,4.0,49,0.00,,,0.00,Rainwise IP-100,2013-06-22 01:35:00,
2013-06-21 21:40:00,69.9,50.0,30.22,SW,225,8.0,8.0,49,0.00,,,0.00,Rainwise IP-100,2013-06-22 01:40:00,
2013-06-21 21:45:00,69.8,50.0,30.24,West,270,4.0,4.0,50,0.00,,,0.00,Rainwise IP-100,2013-06-22 01:45:00,
2013-06-21 21:50:00,69.7,50.0,30.21,West,270,8.0,8.0,50,0.00,,,0.00,Rainwise IP-100,2013-06-22 01:50:00,
2013-06-21 21:55:00,69.5,50.0,30.22,WSW,247,6.0,6.0,51,0.00,,,0.00,Rainwise IP-100,2013-06-22 01:55:00,
2013-06-21 22:00:00,69.3,50.0,30.23,WSW,247,6.0,6.0,51,0.00,,,0.00,Rainwise IP-100,2013-06-22 02:00:00,
2013-06-21 22:05:00,69.1,50.0,30.20,WSW,247,7.0,7.0,52,0.00,,,0.00,Rainwise IP-100,2013-06-22 02:05:00,
2013-06-21 22:10:00,69.0,50.0,30.23,West,270,9.0,9.0,52,0.00,,,0.00,Rainwise IP-100,2013-06-22 02:10:00,
2013-06-21 22:15:00,68.9,50.0,30.20,WSW,247,9.0,9.0,52,0.00,,,0.00,Rainwise IP-100,2013-06-22 02:15:00,
2013-06-21 22:20:00,68.7,50.0,30.24,SW,225,4.0,4.0,52,0.00,,,0.00,Rainwise IP-100,2013-06-22 02:20:00,
2013-06-21 22:25:00,68.5,50.0,30.24,WSW,247,0.0,4.0,53,0.00,,,0.00,Rainwise IP-100,2013-06-22 02:25:00,
2013-06-21 22:30:00,68.2,50.0,30.22,SW,225,6.0,0.0,53,0.00,,,0.00,Rainwise IP-100,2013-06-22 02:30:00,
2013-06-21 22:35:00,68.0,50.0,30.20,West,270,6.0,6.0,54,0.00,,,0.00,Rainwise IP-100,2013-06-22 02:35:00,
2013-06-21 22:40:00,67.8,50.0,30.21,West,270,9.0,9.0,54,0.00,,,0.00,Rainwise IP-100,2013-06-22 02:40:00,
2013-06-21 22:45:00,67.5,50.0,30.22,WSW,247,5.0,5.0,54,0.00,,,0.00,Rainwise IP-100,2013-06-22 02:45:00,
2013-06-21 22:50:00,67.3,50.0,30.24,WSW,247,6.0,6.0,55,0.00,,,0.00,Rainwise IP-100,2013-06-22 02:50:00,
2013-06-21 22:55:00,67.1,50.0,30.20,West,270,4.0,4.0,55,0.00,,,0.00,Rainwise IP-100,2013-06-22 02:55:00,
2013-06-21 23:00:00,66.9,51.0,30.23,West,270,8.0,0.0,56,0.00,,,0.00,Rainwise IP-100,2013-06-22 03:00:00,
2013-06-21 23:05:00,66.7,50.0,30.22,WSW,247,0.0,3.0,56,0.00,,,0.00,Rainwise IP-100,2013-06-22 03:05:00,
2013-06-21 23:10:00,66.5,51.0,30.19,SW,225,5.0,5.0,57,0.00,,,0.00,Rainwise IP-100,2013-06-22 03:10:00,
2013-06-21 23:15:00,66.4,50.0,30.21,NNW,337,4.0,0.0,57,0.00,,,0.00,Rainwise IP-100,2013-06-22 03:15:00,
2013-06-21 23:20:00,66.4,51.0,30.22,SW,225,8.0,0.0,58,0.00,,,0.00,Rainwise IP-100,2013-06-22 03:20:00,
2013-06-21 23:25:00,66.5,51.0,30.20,SSW,202,3.0,3.0,58,0.00,,,0.00,Rainwise IP-100,2013-06-22 03:25:00,
2013-06-21 23:30:00,66.7,51.0,30.22,WSW,247,6.0,0.0,58,0.00,,,0.00,Rainwise IP-100,2013-06-22 03:30:00,
2013-06-21 23:35:00,66.8,51.0,30.23,West,270,3.0,9.0,58,0.00,,,0.00,Rainwise IP-100,2013-06-22 03:35:00,
2013-06-21 23:40:00,66.9,52.0,30.22,WSW,247,8.0,9.0,58,0.00,,,0.00,Rainwise IP-100,2013-06-22 03:40:00,
2013-06-21 23:45:00,67.0,52.0,30.24,West,270,8.0,0.0,58,0.00,,,0.00,Rainwise IP-100,2013-06-22 03:45:00,
2013-06-21 23:50:00,67.1,52.0,30.20,West,270,4.0,4.0,58,0.00,,,0.00,Rainwise IP-100,2013-06-22 03:50:00,
2013-06-21 23:55:00,67.3,52.0,30.23,WSW,247,7.0,7.0,58,0.00,,,0.00,Rainwise IP-100,2013-06-22 03:55:00,